Home > Weather > Campinas > Past weeks

Flag for Brazil Past Weather in Campinas, São Paulo, Brazil — Yesterday and Last 2 Weeks

Now
64 °F

Clear.


Feels Like: 64 °F
Forecast: 65 / 86 °F
Wind: 6 mph from Southeast

Location: Campinas Aeroporto

Current Time: Aug 29, 2016 at 2:45:38 AM

Latest Report: Aug 29, 2016 at 2:00 AM


Visibility: 10 mi

Pressure: 30.07 "Hg (27.74 "Hg at 686m altitude)

Humidity: 60%

Dew Point: 50 °F

Location of CampinasLocation

Past Weather in Campinas — Graph

°F

Campinas Temperature Yesterday

Maximum temperature yesterday: 88 °F (at 2:00 PM)
Minimum temperature yesterday: 59 °F (at 6:00 AM)
Average temperature yesterday: 74 °F

High & Low Weather Summary for the Past Weeks

 TemperatureHumidityPressure
High90 °F (Aug 19, 3:00 PM)100% (Aug 21, 9:00 AM)30.30 "Hg (Aug 21, 9:00 AM)
Low48 °F (Aug 22, 5:00 AM)11% (Aug 14, 2:00 PM)29.86 "Hg (Aug 15, 2:00 PM)
Average67 °F59%30.08 "Hg
* Reported Aug 14 1:00 AM — Aug 29 1:00 AM, Campinas, Weather by CustomWeather, © 2016

Note: Actual official high and low records may vary slightly from our data, if they occured in-between our weather recording intervals... More about our weather records

Advertising

Campinas Weather History for the Previous 24 Hours

Scroll right to see more
 ConditionsComfort  
Time TempWeatherWind HumidityBarometerVisibility
1:00 AM
Mon, Aug 29
66 °FClear.7 mph56%30.07 "Hg10 mi
12:00 AM68 °FClear.6 mph49%30.07 "Hg10 mi
11:00 PM
Sun, Aug 28
72 °FClear.9 mph41%30.07 "Hg10 mi
10:00 PM75 °FClear.6 mph34%30.07 "Hg10 mi
9:00 PM75 °FClear.7 mph34%30.04 "Hg10 mi
8:00 PM79 °FClear.6 mph28%30.04 "Hg10 mi
7:00 PM81 °FClear.5 mph26%30.01 "Hg10 mi
6:00 PM84 °FClear.5 mph19%30.01 "Hg10 mi
5:00 PM86 °FPassing clouds.6 mph15%30.01 "HgN/A
4:00 PM88 °FPassing clouds.9 mph17%29.98 "HgN/A
3:00 PM88 °FPassing clouds.17 mph16%30.01 "HgN/A
2:00 PM88 °FPassing clouds.5 mph18%30.04 "HgN/A
1:00 PM86 °FPassing clouds.13 mph22%30.07 "HgN/A
12:00 PM84 °FSunny.14 mph25%30.07 "Hg10 mi
11:00 AM81 °FSunny.13 mph30%30.09 "Hg10 mi
10:00 AM79 °FSunny.10 mph30%30.09 "Hg10 mi
9:00 AM72 °FSunny.6 mph41%30.09 "Hg10 mi
8:00 AM64 °FClear.6 mph52%30.09 "Hg6 mi
7:00 AM59 °FSunny.8 mph63%30.09 "Hg10 mi
6:00 AM59 °FSunny.8 mph63%30.07 "Hg10 mi
5:00 AM61 °FClear.9 mph59%30.07 "Hg10 mi
4:00 AM61 °FClear.8 mph59%30.04 "Hg10 mi
3:00 AM61 °FClear.8 mph59%30.04 "Hg10 mi
Weather by CustomWeather, © 2016

See weather overviewHow to use our weather pages